User: anonymous   Login
Location: McNierney
(34.1937°N, 106.9061°W)
Time: 23:22:28
(UTC+00:00)
Language:

Okean 1 - Orbit

View from above orbital plane
View from above orbital plane
View from above satellite
View from above satellite

Ground track
Ground track

The orbit is defined by the following mean orbital elements,

1 19274U          26037.13062608 +.00000000 +00000-0 +49080-3 0 00004
2 19274  82.4706 295.0125 0011391 290.8412  69.1608 15.31013044    09
Epoch (UTC): 06 February 2026 03:08:06
Eccentricity: 0.0011391
inclination: 82.4706°
perigee height: 465 km
apogee height: 481 km
right ascension of ascending node: 295.0125°
argument of perigee: 290.8412°
revolutions per day: 15.31013044
mean anomaly at epoch: 69.1608°

The dashed part of the orbit path shows where the satellite is in the earth's shadow,  

DLR